{"data":{"norad_id":57640,"epoch":"2026-09-19T21:13:22.548000Z","epoch_age_seconds":184764,"freshness":"STALE","line1":"1 57640U 23122J   26262.88428875  .00000762  00000+0  37231-4 0  9994","line2":"2 57640  43.0037  76.0355 0002001 262.5235  97.5389 15.27582268171898","mean_motion":15.27582268,"eccentricity":0.0002001,"inclination_deg":43.0037,"raan_deg":76.0355,"arg_perigee_deg":262.5235,"mean_anomaly_deg":97.5389,"bstar":3.7231e-5,"rev_number":17189,"period_min":94.266608755896,"perigee_km":481.66938286125,"apogee_km":484.41522681904,"semimajor_km":6861.1793048401,"source":"CELESTRAK","updated_at":"2026-09-21T09:00:33.666730Z"}}